#timestamp,LO_Frequency,Hit,Temp,Hum 
1480359615.4,286046982.6,N,0.0,0.0
1480359635.2,286046984.4,N,0.0,0.0
1480359655.1,286046984.7,N,0.0,0.0
1480359656.0,286046984.7,N,0.0,0.0
1480359675.8,286046984.3,N,0.0,0.0
1480359695.7,286046986.0,N,0.0,0.0
1480359715.5,286046987.5,N,0.0,0.0
1480359735.3,286046987.7,N,0.0,0.0
1480359755.2,286046986.9,N,0.0,0.0
1480359775.0,286046987.0,N,0.0,0.0
1480359775.9,286046987.0,N,0.0,0.0
1480359795.8,286046989.5,N,0.0,0.0
1480359815.6,286046987.0,N,0.0,0.0
1480359835.4,286046987.4,N,0.0,0.0
1480359855.3,286046986.9,N,0.0,0.0
1480359875.1,286046989.9,N,0.0,0.0
1480359895.8,286046987.4,N,0.0,0.0
1480359915.7,286046989.1,N,0.0,0.0
1480359935.5,286046988.7,N,0.0,0.0
1480359955.4,286046991.4,N,0.0,0.0
1480359975.2,286046990.5,N,0.0,0.0
1480359995.0,286046990.1,N,0.0,0.0
1480359995.9,286046990.1,N,0.0,0.0
1480360015.8,286046990.5,N,0.0,0.0
1480360035.6,286046992.7,N,0.0,0.0
1480360055.5,286046992.7,N,0.0,0.0
1480360075.3,286046990.1,N,0.0,0.0
1480360095.1,286046990.5,N,0.0,0.0
1480360115.9,286046992.7,N,0.0,0.0
1480360135.7,286046990.6,N,0.0,0.0
1480360155.5,286046992.7,N,0.0,0.0
1480360175.4,286046992.7,N,0.0,0.0
1480360195.2,286046991.2,N,0.0,0.0
1480360215.1,286046990.7,N,0.0,0.0
1480360216.0,286046990.7,N,0.0,0.0
1480360235.8,286046990.7,N,0.0,0.0
1480360255.6,286046993.2,N,0.0,0.0
1480360275.5,286046993.0,N,0.0,0.0
1480360295.3,286046994.8,N,0.0,0.0
1480360315.1,286046992.2,N,0.0,0.0
1480360335.9,286046994.4,N,0.0,0.0
1480360355.7,286046993.8,N,0.0,0.0
1480360375.6,286046996.3,N,0.0,0.0
1480360395.4,286046995.4,N,0.0,0.0
1480360415.2,286046995.7,N,0.0,0.0
1480360435.1,286046995.6,N,0.0,0.0
1480360436.0,286046995.6,N,0.0,0.0
1480360455.8,286046995.1,N,0.0,0.0
1480360475.7,286046995.2,N,0.0,0.0
1480360495.5,286046997.9,N,0.0,0.0
1480360515.3,286046997.0,N,0.0,0.0
1480360535.2,286046998.3,N,0.0,0.0
1480360555.0,286046999.9,N,0.0,0.0
1480360555.9,286046999.9,N,0.0,0.0
1480360575.7,286047001.2,N,0.0,0.0
1480360595.6,286047000.3,N,0.0,0.0
1480360615.4,286047001.0,N,0.0,0.0
1480360635.3,286046999.8,N,0.0,0.0
1480360655.1,286047001.0,N,0.0,0.0
1480360675.8,286046999.8,N,0.0,0.0
1480360695.7,286047002.1,N,0.0,0.0
1480360715.5,286047002.2,N,0.0,0.0
1480360735.4,286047001.7,N,0.0,0.0
1480360755.2,286047003.6,N,0.0,0.0
1480360775.0,286047003.7,N,0.0,0.0
1480360775.9,286047003.7,N,0.0,0.0
1480360795.8,286047003.1,N,0.0,0.0
1480360815.6,286047003.6,N,0.0,0.0
1480360835.5,286047003.1,N,0.0,0.0
1480360855.3,286047003.5,N,0.0,0.0
1480360875.1,286047004.3,N,0.0,0.0
1480360895.9,286047003.7,N,0.0,0.0
1480360915.7,286047003.3,N,0.0,0.0
1480360935.5,286047005.6,N,0.0,0.0
1480360955.4,286047007.2,N,0.0,0.0
1480360975.2,286047007.6,N,0.0,0.0
1480360995.1,286047005.3,N,0.0,0.0
1480360996.0,286047005.3,N,0.0,0.0
1480361015.8,286047005.8,N,0.0,0.0
1480361035.6,286047005.7,N,0.0,0.0
1480361055.5,286047005.5,N,0.0,0.0
1480361075.3,286047004.5,N,0.0,0.0
1480361095.1,286047007.1,N,0.0,0.0
1480361115.9,286047006.5,N,0.0,0.0
1480361135.7,286047006.3,N,0.0,0.0
1480361155.6,286047007.3,N,0.0,0.0
1480361175.4,286047007.2,N,0.0,0.0
1480361195.2,286047006.9,N,0.0,0.0
1480361215.1,286047009.2,N,0.0,0.0
1480361216.0,286047009.2,N,0.0,0.0
1480361235.8,286047006.2,N,0.0,0.0
1480361255.7,286047006.6,N,0.0,0.0
1480361275.5,286047006.4,N,0.0,0.0
1480361295.3,286047009.0,N,0.0,0.0
1480361315.2,286047008.6,N,0.0,0.0
1480361335.0,286047008.5,N,0.0,0.0
1480361335.9,286047008.5,N,0.0,0.0
1480361355.8,286047008.4,N,0.0,0.0
1480361375.6,286047008.0,N,0.0,0.0
1480361395.4,286047009.0,N,0.0,0.0
1480361415.3,286047008.7,N,0.0,0.0
1480361435.1,286047009.0,N,0.0,0.0
1480361455.8,286047008.0,N,0.0,0.0
1480361475.7,286047008.9,N,0.0,0.0
1480361495.5,286047008.6,N,0.0,0.0
1480361515.3,286047008.2,N,0.0,0.0
1480361535.2,286047007.7,N,0.0,0.0
1480361555.0,286047012.3,N,0.0,0.0
1480361555.9,286047012.3,N,0.0,0.0
1480361575.8,286047009.4,N,0.0,0.0
1480361595.6,286047009.8,N,0.0,0.0
1480361615.4,286047009.8,N,0.0,0.0
1480361635.3,286047011.9,N,0.0,0.0
1480361655.1,286047012.0,N,0.0,0.0
1480361675.9,286047012.1,N,0.0,0.0
1480361695.7,286047011.4,N,0.0,0.0
1480361715.5,286047011.1,N,0.0,0.0
1480361735.4,286047011.0,N,0.0,0.0
1480361755.2,286047010.9,N,0.0,0.0
1480361775.1,286047011.3,N,0.0,0.0
1480361776.0,286047011.3,N,0.0,0.0
1480361795.8,286047013.6,N,0.0,0.0
1480361815.6,286047014.0,N,0.0,0.0
1480361835.5,286047013.5,N,0.0,0.0
1480361855.3,286047013.7,N,0.0,0.0
1480361875.1,286047013.7,N,0.0,0.0
1480361895.9,286047011.4,N,0.0,0.0
1480361915.7,286047011.5,N,0.0,0.0
1480361935.6,286047011.7,N,0.0,0.0
1480361955.4,286047011.8,N,0.0,0.0
1480361975.2,286047010.9,N,0.0,0.0
1480361995.1,286047011.0,N,0.0,0.0
1480361996.0,286047011.0,N,0.0,0.0
1480362015.8,286047014.0,N,0.0,0.0
1480362035.7,286047013.7,N,0.0,0.0
1480362055.5,286047013.2,N,0.0,0.0
1480362075.3,286047013.1,N,0.0,0.0
1480362095.2,286047015.6,N,0.0,0.0
1480362115.0,286047014.9,N,0.0,0.0
1480362115.9,286047014.9,N,0.0,0.0
1480362135.8,286047014.2,N,0.0,0.0
1480362155.6,286047017.1,N,0.0,0.0
1480362175.4,286047016.0,N,0.0,0.0
1480362195.3,286047014.1,N,0.0,0.0
1480362215.1,286047016.3,N,0.0,0.0
1480362235.8,286047016.1,N,0.0,0.0
1480362255.7,286047016.2,N,0.0,0.0
1480362275.5,286047015.8,N,0.0,0.0
1480362295.4,286047015.9,N,0.0,0.0
1480362315.2,286047016.5,N,0.0,0.0
1480362335.0,286047014.5,N,0.0,0.0
1480362335.9,286047014.5,N,0.0,0.0
1480362355.8,286047014.6,N,0.0,0.0
1480362375.6,286047016.6,N,0.0,0.0
1480362395.4,286047014.1,N,0.0,0.0
1480362415.3,286047016.5,N,0.0,0.0
1480362435.1,286047016.9,N,0.0,0.0
1480362455.9,286047016.2,N,0.0,0.0
1480362475.7,286047016.2,N,0.0,0.0
1480362495.5,286047016.0,N,0.0,0.0
1480362515.4,286047015.7,N,0.0,0.0
1480362535.2,286047018.8,N,0.0,0.0
1480362555.0,286047018.3,N,0.0,0.0
1480362555.9,286047018.3,N,0.0,0.0
1480362575.8,286047018.1,N,0.0,0.0
1480362595.6,286047018.8,N,0.0,0.0
1480362615.5,286047018.7,N,0.0,0.0
1480362635.3,286047018.5,N,0.0,0.0
1480362655.1,286047018.6,N,0.0,0.0
1480362675.9,286047017.6,N,0.0,0.0
1480362695.7,286047020.2,N,0.0,0.0
1480362715.5,286047019.7,N,0.0,0.0
1480362735.4,286047019.2,N,0.0,0.0
1480362755.2,286047020.2,N,0.0,0.0
1480362775.1,286047023.5,N,0.0,0.0
1480362776.0,286047023.5,N,0.0,0.0
1480362795.8,286047020.5,N,0.0,0.0
1480362815.6,286047023.5,N,0.0,0.0
1480362835.5,286047021.0,N,0.0,0.0
1480362855.3,286047020.7,N,0.0,0.0
1480362875.2,286047023.0,N,0.0,0.0
1480362895.9,286047024.8,N,0.0,0.0
1480362915.7,286047024.3,N,0.0,0.0
1480362935.6,286047024.1,N,0.0,0.0
1480362955.4,286047026.4,N,0.0,0.0
1480362975.3,286047026.5,N,0.0,0.0
1480362995.1,286047025.4,N,0.0,0.0
1480362996.0,286047025.4,N,0.0,0.0
1480363015.8,286047025.6,N,0.0,0.0
1480363035.7,286047026.6,N,0.0,0.0
1480363055.5,286047026.6,N,0.0,0.0
1480363075.3,286047026.6,N,0.0,0.0
1480363095.2,286047025.5,N,0.0,0.0
1480363115.0,286047025.3,N,0.0,0.0
1480363115.9,286047025.3,N,0.0,0.0
1480363135.8,286047028.1,N,0.0,0.0
1480363155.6,286047028.2,N,0.0,0.0
1480363175.4,286047029.6,N,0.0,0.0
1480363195.3,286047026.9,N,0.0,0.0
